FW4580 Weather Reports


Display with metric or nautical units.
time (UTC)temp
F
wind
direction
speed
MPH
gust
MPH
rain 1hr
in
rain 24hr
in
rain mn
in
humidity
%
barometer
mb
20240224013324 55 281 4.0 6.0 0.00 0.01 0.01 35 1011.9
20240224013038 54 286 2.0 6.0 0.00 0.01 0.01 35 1012.2
20240224011541 55 290 3.0 7.0 0.00 0.01 0.01 35 1012.1
20240224010337 56 279 3.0 5.0 0.00 0.01 0.01 34 1011.7
20240224010022 55 288 2.0 5.0 0.00 0.01 0.01 34 1012.0
20240224004524 56 287 3.0 7.0 0.00 0.01 0.01 33 1011.8
20240224003329 58 281 4.0 8.0 0.00 0.01 0.01 32 1011.4
20240224003008 57 287 3.0 7.0 0.00 0.01 0.01 32 1011.7
20240224001511 58 291 4.0 9.0 0.00 0.01 0.01 31 1011.5
20240224000340 59 292 5.0 10.0 0.00 0.01 0.01 30 1011.1
20240224000042 59 285 5.0 10.0 0.00 0.01 0.01 30 1011.4
20240223234548 60 299 5.0 12.0 0.00 0.01 0.01 30 1011.4
20240223233340 61 295 6.0 9.0 0.00 0.01 0.01 29 1011.1
20240223233029 60 299 5.0 13.0 0.00 0.01 0.01 29 1011.3
20240223231535 61 298 7.0 13.0 0.00 0.01 0.01 28 1011.3
20240223230327 62 281 7.0 13.0 0.01 0.01 0.01 28 1010.9
20240223230014 62 286 5.0 15.0 0.01 0.01 0.01 28 1011.2
20240223224603 63 298 7.0 14.0 0.01 0.01 0.01 27 1011.1
20240223224503 63 280 6.0 14.0 0.01 0.01 0.01 27 1011.1
20240223223354 63 298 7.0 13.0 0.01 0.01 0.01 27 1010.8
20240223223025 63 296 6.0 18.0 0.01 0.01 0.01 27 1011.1
20240223221525 63 283 8.0 13.0 0.01 0.01 0.01 27 1011.0
20240223220324 63 257 10.0 18.0 0.00 0.00 0.00 26 1010.7
20240223220113 62 259 10.0 16.0 0.00 0.00 0.00 26 1010.9
20240223214542 62 294 5.0 15.0 0.00 0.00 0.00 28 1011.1
20240223213335 64 305 5.0 12.0 0.00 0.00 0.00 27 1010.9
20240223213024 64 270 6.0 12.0 0.00 0.00 0.00 27 1011.1
20240223211531 64 308 7.0 14.0 0.00 0.00 0.00 29 1011.2
20240223210332 65 294 7.0 13.0 0.00 0.00 0.00 29 1010.9
20240223210009 64 283 8.0 14.0 0.00 0.00 0.00 27 1011.1
20240223204516 65 300 8.0 15.0 0.00 0.00 0.00 27 1011.2
20240223203338 66 311 10.0 16.0 0.00 0.00 0.00 27 1011.1
20240223203054 66 334 5.0 13.0 0.00 0.00 0.00 29 1011.3
20240223201550 64 360 6.0 15.0 0.00 0.00 0.00 29 1011.3
20240223200325 64 269 9.0 14.0 0.00 0.00 0.00 29 1011.2
20240223200035 64 275 9.0 14.0 0.00 0.00 0.00 28 1011.4
20240223194540 65 283 8.0 15.0 0.00 0.00 0.00 29 1011.5
20240223193338 64 252 9.0 19.0 0.00 0.00 0.00 29 1011.6
20240223193026 64 279 9.0 19.0 0.00 0.00 0.00 30 1011.7
20240223191522 63 271 8.0 19.0 0.00 0.00 0.00 30 1012.0
20240223190327 63 267 8.0 16.0 0.00 0.00 0.00 30 1011.9
20240223190009 63 275 9.0 16.0 0.00 0.00 0.00 30 1012.2
20240223184512 63 296 6.0 16.0 0.00 0.00 0.00 31 1012.5
20240223183341 63 304 8.0 14.0 0.00 0.00 0.00 30 1012.5
20240223183052 63 283 6.0 12.0 0.00 0.00 0.00 30 1012.9
20240223181555 63 261 6.0 12.0 0.00 0.00 0.00 34 1013.0
20240223180328 62 261 7.0 10.0 0.00 0.00 0.00 34 1013.1
20240223180037 61 246 6.0 12.0 0.00 0.00 0.00 36 1013.3
20240223174538 60 284 5.0 12.0 0.00 0.00 0.00 36 1013.6
20240223173401 60 259 6.0 10.0 0.00 0.00 0.00 36 1013.5
20240223173056 59 281 5.0 9.0 0.00 0.00 0.00 37 1013.8
20240223173006 59 297 5.0 9.0 0.00 0.00 0.00 37 1013.8
20240223171606 59 273 4.0 7.0 0.00 0.00 0.00 41 1013.9
20240223170327 57 265 5.0 8.0 0.00 0.00 0.00 42 1013.7
20240223170039 57 250 5.0 8.0 0.00 0.00 0.00 43 1013.9
20240223164540 55 288 3.0 7.0 0.00 0.00 0.00 47 1014.1
20240223163337 53 268 3.0 7.0 0.00 0.00 0.00 50 1014.0
20240223163020 52 238 4.0 7.0 0.00 0.00 0.00 50 1014.2
20240223161520 51 269 5.0 8.0 0.00 0.00 0.00 53 1014.2
20240223160321 50 279 5.0 9.0 0.00 0.00 0.00 54 1014.0
20240223160040 49 305 5.0 7.0 0.00 0.00 0.00 56 1014.3
20240223154542 46 285 4.0 7.0 0.00 0.00 0.00 61 1014.4
20240223153323 45 291 5.0 8.0 0.00 0.00 0.00 64 1014.2
20240223153023 44 252 4.0 8.0 0.00 0.00 0.00 65 1014.4
20240223151527 43 261 2.0 5.0 0.00 0.00 0.00 68 1014.5
20240223150333 42 246 4.0 7.0 0.00 0.00 0.00 70 1014.3
20240223150009 41 246 2.0 5.0 0.00 0.00 0.00 71 1014.6
20240223144530 39 292 3.0 6.0 0.00 0.00 0.00 74 1014.5
20240223143319 39 255 4.0 8.0 0.00 0.00 0.00 77 1014.2
20240223143050 38 232 2.0 6.0 0.00 0.00 0.00 77 1014.4
20240223141551 36 212 4.0 7.0 0.00 0.00 0.00 78 1014.5
20240223140336 36 252 3.0 7.0 0.00 0.00 0.00 80 1014.1
20240223140040 36 256 3.0 7.0 0.00 0.00 0.00 80 1014.4
20240223134539 35 239 3.0 7.0 0.00 0.00 0.00 81 1014.1
20240223133324 35 249 2.0 5.0 0.00 0.00 0.00 82 1013.7
20240223133011 34 248 3.0 5.0 0.00 0.00 0.00 82 1013.9
20240223131600 34 245 1.0 4.0 0.00 0.00 0.00 82 1013.8
20240223130333 35 244 2.0 5.0 0.00 0.00 0.00 82 1013.5
20240223130033 34 245 2.0 5.0 0.00 0.00 0.00 81 1013.7
20240223124551 34 248 3.0 6.0 0.00 0.00 0.00 82 1013.8
20240223123324 35 244 2.0 5.0 0.00 0.00 0.00 81 1013.4
20240223123023 34 257 2.0 5.0 0.00 0.00 0.00 81 1013.6
20240223121505 34 261 1.0 4.0 0.00 0.00 0.00 81 1013.6
20240223120333 35 262 3.0 5.0 0.00 0.00 0.00 80 1013.3
20240223120051 35 263 2.0 5.0 0.00 0.00 0.00 81 1013.6
20240223114545 35 266 2.0 5.0 0.00 0.00 0.00 80 1013.5
20240223113323 35 278 2.0 4.0 0.00 0.00 0.00 80 1013.3
20240223113029 35 278 1.0 4.0 0.00 0.00 0.00 80 1013.5
20240223111545 35 278 1.0 2.0 0.00 0.00 0.00 80 1013.5
20240223110336 36 278 1.0 4.0 0.00 0.00 0.00 80 1013.2
20240223110017 35 278 1.0 5.0 0.00 0.00 0.00 80 1013.3
20240223104521 35 284 1.0 3.0 0.00 0.00 0.00 81 1013.3
20240223103325 36 286 2.0 4.0 0.00 0.00 0.00 82 1013.1
20240223103059 35 287 1.0 3.0 0.00 0.00 0.00 82 1013.3
20240223103001 35 286 1.0 4.0 0.00 0.00 0.00 82 1013.3
20240223101503 35 302 1.0 3.0 0.00 0.00 0.00 80 1013.3
20240223100323 36 309 2.0 3.0 0.00 0.00 0.00 80 1013.1
20240223100049 36 312 0.0 2.0 0.00 0.00 0.00 79 1013.2
20240223094531 36 312 1.0 3.0 0.00 0.00 0.00 78 1013.2
20240223093336 37 313 1.0 1.0 0.00 0.00 0.00 77 1013.2
20240223093059 36 313 0.0 1.0 0.00 0.00 0.00 77 1013.3
20240223091557 37 313 0.0 2.0 0.00 0.00 0.00 75 1013.3
20240223090323 38 313 1.0 2.0 0.00 0.00 0.00 73 1013.2
20240223090021 38 313 0.0 2.0 0.00 0.00 0.00 73 1013.3
20240223084528 38 313 0.0 2.0 0.00 0.00 0.00 73 1013.3
20240223083330 39 313 0.0 2.0 0.00 0.00 0.00 72 1013.2
20240223083017 39 313 0.0 2.0 0.00 0.00 0.00 73 1013.3
20240223081520 38 313 0.0 1.0 0.00 0.00 0.00 71 1013.4
20240223080322 40 313 1.0 2.0 0.00 0.00 0.00 70 1013.3
20240223080050 39 313 0.0 2.0 0.00 0.00 0.00 70 1013.3
20240223074603 40 313 1.0 4.0 0.00 0.00 0.00 72 1013.3
20240223073335 40 314 1.0 2.0 0.00 0.00 0.00 72 1013.3
20240223073037 39 314 0.0 2.0 0.00 0.00 0.00 72 1013.3
20240223071539 40 314 0.0 1.0 0.00 0.00 0.00 69 1013.3
20240223070325 41 314 0.0 1.0 0.00 0.00 0.00 69 1013.2
20240223070014 41 314 0.0 1.0 0.00 0.00 0.00 68 1013.2
20240223064559 41 314 0.0 2.0 0.00 0.00 0.00 67 1013.3
20240223063335 42 314 0.0 0.0 0.00 0.00 0.00 65 1013.1
20240223063044 42 314 0.0 0.0 0.00 0.00 0.00 64 1013.2
20240223061547 43 314 0.0 1.0 0.00 0.00 0.00 63 1013.2
20240223060325 44 314 0.0 2.0 0.00 0.00 0.00 62 1013.2
20240223060037 44 314 0.0 4.0 0.00 0.00 0.00 62 1013.3
20240223054521 45 304 0.0 2.0 0.00 0.00 0.00 60 1013.2
20240223053332 46 304 1.0 2.0 0.00 0.00 0.00 59 1013.4
20240223053124 46 304 0.0 4.0 0.00 0.00 0.00 59 1013.4
20240223051556 47 349 1.0 6.0 0.00 0.00 0.00 58 1013.3
20240223050333 48 322 2.0 7.0 0.00 0.00 0.00 57 1013.1
20240223050041 47 306 1.0 7.0 0.00 0.00 0.00 57 1013.1
20240223044542 48 310 1.0 5.0 0.00 0.00 0.00 56 1013.0
20240223043315 49 324 1.0 7.0 0.00 0.00 0.00 55 1012.9
20240223043032 49 291 1.0 7.0 0.00 0.00 0.00 54 1012.9
20240223041530 50 338 2.0 6.0 0.00 0.00 0.00 53 1012.9
20240223040330 51 331 2.0 5.0 0.00 0.00 0.00 52 1012.8
20240223040021 51 309 1.0 4.0 0.00 0.00 0.00 52 1012.7
20240223034517 51 333 1.0 6.0 0.00 0.00 0.00 51 1012.5
20240223033323 52 320 2.0 6.0 0.00 0.00 0.00 51 1012.4
20240223033101 52 286 1.0 6.0 0.00 0.00 0.00 50 1012.4
20240223033002 52 286 2.0 6.0 0.00 0.00 0.00 50 1012.4
20240223031503 52 300 1.0 6.0 0.00 0.00 0.00 50 1012.2
20240223030357 53 314 1.0 6.0 0.00 0.00 0.00 50 1012.1
20240223030023 53 331 3.0 6.0 0.00 0.00 0.00 49 1012.1
20240223024531 53 277 1.0 5.0 0.00 0.00 0.00 49 1012.0
20240223023333 53 293 2.0 5.0 0.00 0.00 0.00 48 1011.8
20240223023013 53 331 1.0 4.0 0.00 0.00 0.00 48 1011.8
20240223021513 54 317 1.0 5.0 0.00 0.00 0.00 47 1011.7
20240223020322 55 321 2.0 6.0 0.00 0.00 0.00 46 1011.5
20240223020055 54 323 1.0 6.0 0.00 0.00 0.00 46 1011.5
20240223014606 55 336 2.0 5.0 0.00 0.00 0.00 46 1011.3
20240223014502 55 306 2.0 5.0 0.00 0.00 0.00 46 1011.3